Change the Weather History Date:

Friday, September 13, 2013

  Actual Average Record
Temperature  
Mean Temperature 54 °F 65 °F  
Max Temperature 63 °F 77 °F 96 °F (1952)
Min Temperature 44 °F 54 °F 35 °F (1975)
Degree Days  
Heating Degree Days 11 3  
Month to date heating degree days 16 21  
Since 1 July heating degree days 45 35  
Cooling Degree Days 0 3  
Month to date cooling degree days 73 53  
Year to date cooling degree days 755 755  
Growing Degree Days 6 (Base 50)    
Moisture  
Dew Point 44 °F    
Average Humidity 69    
Maximum Humidity 89    
Minimum Humidity 48    
Precipitation  
Precipitation 0.00 in 0.10 in 2.01 in (2008)
Month to date precipitation 1.13 1.23  
Year to date precipitation 27.92 24.55  
Snow  
Snow 0.00 in 0.00 in - ()
Month to date snowfall 0.0 0.0  
Since 1 July snowfall 0.0 0.0  
Since 1 September snowfall 0.0 0.0  
Snow Depth 0.00 in    
Sea Level Pressure  
Sea Level Pressure 30.06 in    
Wind  
Wind Speed 8 mph (NNW)    
Max Wind Speed 18 mph    
Max Gust Speed 25 mph    
Visibility 10 miles    
Events      
T = Trace of Precipitation, MM = Missing Value Source: NWS Daily Summary

Daily Weather History Graph

Daily Weather History Graph

Search for Another Location

Airport or City:

Trip Planner

Search our weather history database for the weather conditions in past years. The results will help you decide how hot, cold, wet, or windy it might be!

Date:

Astronomy

Sep. 13, 2013 Rise Set
Actual Time 7:13 AM EDT 7:47 PM EDT
Civil Twilight 6:45 AM EDT 8:15 PM EDT
Nautical Twilight 6:12 AM EDT 8:48 PM EDT
Astronomical Twilight 5:38 AM EDT 9:22 PM EDT
Moon 3:39 PM EDT (9/13) 12:38 AM EDT (9/13)
Length of Visible Light 13h 29m
Length of Day
12h 33m
First Quarter, 61% of the Moon is Illuminated
Sep 13
First Quarter
Sep 19
Full
Sep 26
Last Quarter
Oct 4
New
Oct 11
First Quarter

Hourly Weather History & Observations

Time (EDT) Temp. Dew Point Humidity Pressure Visibility Wind Dir Wind Speed Gust Speed Precip Events Conditions
12:52 AM 55.9 °F 50.0 °F 80% 29.98 in 10.0 mi NNW 5.8 mph - N/A   Clear
1:52 AM 55.0 °F 48.0 °F 77% 29.99 in 10.0 mi NNW 6.9 mph - N/A   Clear
2:52 AM 54.0 °F 46.0 °F 75% 29.99 in 10.0 mi NNW 9.2 mph - N/A   Clear
3:52 AM 53.1 °F 46.9 °F 80% 29.98 in 10.0 mi WNW 4.6 mph - N/A   Overcast
4:52 AM 53.1 °F 46.9 °F 80% 30.00 in 10.0 mi WNW 6.9 mph - N/A   Overcast
5:52 AM 53.1 °F 45.0 °F 74% 29.99 in 10.0 mi NW 8.1 mph - N/A   Scattered Clouds
6:52 AM 52.0 °F 43.0 °F 71% 30.00 in 10.0 mi NNW 8.1 mph - N/A   Clear
7:52 AM 51.1 °F 44.1 °F 77% 30.03 in 10.0 mi NNW 10.4 mph - N/A   Scattered Clouds
8:52 AM 52.0 °F 45.0 °F 77% 30.04 in 10.0 mi NNW 11.5 mph 17.3 mph N/A   Overcast
9:38 AM 53.6 °F 46.4 °F 77% 30.04 in 10.0 mi North 12.7 mph 20.7 mph N/A   Overcast
9:50 AM 53.6 °F 46.4 °F 77% 30.05 in 10.0 mi North 16.1 mph 21.9 mph N/A   Overcast
9:52 AM 54.0 °F 46.0 °F 75% 30.05 in 10.0 mi North 16.1 mph 23.0 mph N/A   Overcast
10:52 AM 55.0 °F 46.0 °F 72% 30.07 in 10.0 mi North 13.8 mph - N/A   Overcast
11:52 AM 55.9 °F 45.0 °F 67% 30.09 in 10.0 mi North 12.7 mph 24.2 mph N/A   Overcast
12:52 PM 60.1 °F 45.0 °F 57% 30.09 in 10.0 mi North 9.2 mph - N/A   Overcast
1:52 PM 59.0 °F 44.1 °F 58% 30.07 in 10.0 mi North 11.5 mph 19.6 mph N/A   Overcast
2:52 PM 62.1 °F 43.0 °F 50% 30.07 in 10.0 mi North 10.4 mph - N/A   Mostly Cloudy
3:52 PM 60.1 °F 41.0 °F 49% 30.07 in 10.0 mi North 11.5 mph 20.7 mph N/A   Mostly Cloudy
4:52 PM 60.1 °F 42.1 °F 51% 30.06 in 10.0 mi North 9.2 mph - N/A   Mostly Cloudy
5:52 PM 59.0 °F 41.0 °F 51% 30.08 in 10.0 mi North 11.5 mph - N/A   Scattered Clouds
6:52 PM 57.9 °F 41.0 °F 53% 30.09 in 10.0 mi North 10.4 mph - N/A   Mostly Cloudy
7:52 PM 55.0 °F 41.0 °F 59% 30.10 in 10.0 mi North 6.9 mph - N/A   Clear
8:52 PM 51.1 °F 42.1 °F 71% 30.13 in 10.0 mi North 5.8 mph - N/A   Clear
9:52 PM 50.0 °F 42.1 °F 74% 30.14 in 10.0 mi North 3.5 mph - N/A   Clear
10:52 PM 48.0 °F 41.0 °F 77% 30.15 in 10.0 mi North 4.6 mph - N/A   Clear
11:52 PM 44.1 °F 41.0 °F 89% 30.14 in 10.0 mi Calm Calm - N/A   Clear